TIME,DELAY(SENSOR),PRES,T(CTD),SAL,OXYGEN,RAWTEMP,T(OPTODE),TCPHASE,FLUOR,BETA(BETA700),BETA(BETA412),BETA(BETA440),CDOM,C(CSC),ED(ED411.90),ED(ED443.80),ED(ED489.40),ED(ED554.70),LU(LU412.20),LU(LU443.80),LU(LU489.40),LU(LU555.00),COMP,TILTX,TILTX(TILTY),CHECK
1351265272,5805,496.5799865722656000,17.3031997680664060,36.4244003295898440,226.6681976318359400,178.3144073486328000,17.3021697998046880,31.4571208953857420,50,100,60,56,50,13375,2146959826,2147513243,2147268187,2147469485,2147087478,2146956589,2147656173,2147122148,1501,-1,8,17955
1351265395,5806,485.2099914550781000,17.4272994995117200,36.4496002197265600,228.8992004394531200,174.3679962158203000,17.4212207794189450,31.2912101745605470,50,99,62,56,51,13373,2146960457,2147513590,2147265956,2147468114,2147088886,2146957796,2147652470,2147120201,3481,-1,8,17410
1351265516,5807,474.3599853515625000,17.5021991729736330,36.4630012512207000,230.0345001220703000,171.8356933593750000,17.4976196289062500,31.2002296447753900,50,100,62,58,51,13375,2146955968,2147515346,2147266605,2147463707,2147084754,2146958564,2147655442,2147124013,1741,-1,8,42298
1351265640,5807,463.5700073242187500,17.5851001739501950,36.4780998229980500,230.6295013427734400,169.1600036621093800,17.5783500671386720,31.1343097686767580,50,100,62,57,50,13371,2146958290,2147515446,2147268790,2147463524,2147083940,2146952237,2147655926,2147128457,125,-1,8,29567
1351265772,5807,452.2399902343750000,17.6508998870849600,36.4911003112793000,231.6558074951172000,166.6997070312500000,17.6525993347167970,31.0505409240722660,51,99,62,57,50,13374,2146957906,2147512896,2147263981,2147462966,2147085659,2146954715,2147655378,2147124955,1803,-2,9,40098
1351265904,5805,441.1000061035156000,17.7318992614746100,36.5065994262695300,232.8663940429687500,164.0966949462890600,17.7311592102050780,30.9559593200683600,50,99,63,55,51,13372,2146959140,2147514459,2147268022,2147459648,2147086235,2146955392,2147654674,2147120274,237,-1,8,55423
1351266027,5804,430.8800048828125000,17.8148002624511720,36.5220985412597660,234.2196044921875000,161.1999053955078000,17.8186092376709000,30.8515205383300780,50,102,62,55,50,13372,2146959917,2147513408,2147264649,2147462939,2147085174,2146957696,2147655881,2147122651,2358,-1,8,33612
1351266170,5808,419.1199951171875000,17.8740997314453120,36.5318984985351560,235.0713043212890600,159.5628967285156200,17.8680305480957030,30.7880802154541000,50,101,63,56,50,13370,2146958912,2147511149,2147267190,2147461120,2147088155,2146950610,2147651291,2147124214,785,-1,8,10591
1351266294,5805,408.8200073242187500,17.9256992340087900,36.5401992797851560,235.5305938720703000,157.8150024414062500,17.9207992553710940,30.7426795959472660,50,99,62,57,50,13370,2146957760,2147513472,2147265664,2147459922,2147087369,2146961554,2147656109,2147127424,2488,-1,9,31129
1351266426,5804,397.7600097656250000,17.9789009094238280,36.5494003295898440,235.6454925537109400,156.0348052978515600,17.9745597839355470,30.7132701873779300,50,101,61,56,50,13369,2146957476,2147514395,2147267456,2147460909,2147086006,2146957293,2147653760,2147120768,876,-1,8,8550
1351266561,5802,386.4500122070312500,18.0305004119873050,36.5553016662597660,235.3258972167968800,154.3197021484375000,18.0263595581054700,30.7055606842041000,50,101,62,56,50,13372,2146955684,2147515940,2147264448,2147458349,2147085577,2146961389,2147654838,2147122742,2275,-1,8,9255
1351266693,5807,375.2600097656250000,18.0559005737304700,36.5559005737304700,234.4669036865234400,153.5061035156250000,18.0509300231933600,30.7361793518066400,50,100,61,55,50,13372,2146958409,2147511744,2147264073,2147458002,2147087277,2146952448,2147651474,2147125156,917,-1,9,39131
1351266825,5803,364.0599975585937500,18.1121006011962900,36.5638008117675800,233.8553009033203000,151.6047973632812500,18.1083602905273440,30.7403793334960940,51,99,61,58,50,13371,2146959753,2147510976,2147266633,2147460864,2147086857,2146959012,2147654902,2147124288,2850,-1,9,2854
1351266948,5805,353.8299865722656000,18.1434001922607420,36.5677986145019500,233.4629974365234400,150.6454010009765600,18.1373405456542970,30.7467403411865230,50,100,61,56,50,13373,2146956928,2147516525,2147264713,2147459766,2147085778,2146963885,2147652178,2147119789,1559,-1,9,18214
1351267091,5808,342.1600036621094000,18.1898002624511720,36.5713996887207000,232.6631011962890600,149.1110992431640600,18.1836891174316400,30.7648506164550780,51,101,62,56,50,13371,2146958756,2147513618,2147262802,2147458624,2147085494,2146957339,2147653878,2147129481,3565,-1,8,30169
1351267226,5804,331.3299865722656000,18.2527008056640620,36.5746994018554700,230.8090972900390600,147.0231933593750000,18.2467803955078120,30.8277206420898440,50,102,62,56,51,13371,2146960585,2147508864,2147265691,2147457920,2147088164,2146961536,2147652973,2147126025,2199,-1,8,46414
1351267358,5805,320.9700012207031000,18.3383007049560550,36.5853004455566400,230.2239074707031200,144.1083984375000000,18.3348598480224600,30.8174705505371100,50,101,62,56,50,13371,2146959661,2147513243,2147266468,2147456713,2147089042,2146961764,2147655908,2147129828,1172,-1,9,58408
1351267512,5801,308.2699890136719000,18.4094009399414060,36.5928993225097660,229.6174011230468800,141.7180023193359400,18.4071102142334000,30.8153705596923830,50,100,61,56,50,13370,2146959908,2147515437,2147264210,2147454592,2147084827,2146960219,2147650496,2147126098,2757,-1,8,26152
1351267623,5801,297.1099853515625000,18.5279006958007800,36.6034011840820300,228.3571929931640600,137.7937927246093800,18.5257492065429700,30.8255100250244140,51,101,62,56,50,13368,2146956854,2147511725,2147267922,2147457773,2147087305,2146961819,2147654116,2147121444,1082,-1,8,23973
1351267733,5805,285.4299926757812500,18.6263008117675780,36.6082992553710940,227.1558990478515600,134.6080017089843800,18.6220893859863280,30.8428897857666000,51,102,61,56,51,13369,2146957769,2147513216,2147263853,2147457371,2147080603,2146967881,2147658532,2147127680,2508,-1,8,17711
1351267851,5809,274.1900024414062500,18.7418994903564450,36.6105003356933600,226.4662933349609400,130.8347930908203000,18.7362194061279300,30.8270606994628900,50,101,62,56,50,13370,2146955794,2147513718,2147262025,2147455716,2147084617,2146964498,2147657270,2147129325,918,-1,8,29147
1351267983,5806,263.5599975585937500,18.8572006225585940,36.6073989868164060,227.2171020507812500,127.1516036987304700,18.8476600646972660,30.7404804229736330,51,100,62,55,50,13371,2146958080,2147512411,2147262052,2147456932,2147080722,2146965147,2147654418,2147126994,210,-2,8,33991
1351268129,5807,252.8399963378906200,18.9428997039794920,36.6066017150878900,228.2384948730468800,124.2286987304687500,18.9361305236816400,30.6508998870849600,50,99,62,56,51,13372,2146955456,2147513444,2147265746,2147455972,2147084873,2146965321,2147666249,2147129069,1772,-1,8,46841
1351268294,5806,241.7200012207031200,19.0494995117187500,36.6021995544433600,230.9479064941406200,120.7751007080078100,19.0406894683837900,30.4719600677490230,51,98,61,56,50,13373,2146959378,2147514212,2147263213,2147453376,2147090322,2146969014,2147671734,2147124452,727,-2,9,59789
1351268458,5805,230.1100006103515600,19.1394996643066400,36.5905990600585940,236.2872924804687500,117.5761032104492200,19.1375694274902340,30.1732406616210940,51,99,61,56,50,13371,2146958381,2147513581,2147263926,2147452992,2147083081,2146974656,2147682514,2147128621,2281,-2,8,24778
1351268579,5807,219.3800048828125000,19.1879997253417970,36.5808982849121100,241.4062042236328000,116.0176010131836000,19.1847705841064450,29.9134101867675780,51,98,62,57,50,13372,2146957065,2147515282,2147263222,2147453997,2147071314,2146984347,2147691126,2147128996,733,-1,9,11795
1351268703,5805,208.3800048828125000,19.2562007904052730,36.5750007629394500,244.3072052001953000,113.8470993041992200,19.2505302429199220,29.7519893646240230,50,100,62,56,50,13371,2146956973,2147517220,2147263616,2147451465,2147084717,2146991707,2147707126,2147129371,2234,-1,9,62106
1351268824,5805,197.4100036621093800,19.3257999420166000,36.5769996643066400,245.9705963134765600,111.4627990722656200,19.3227806091308600,29.6456108093261720,52,99,61,57,50,13369,2146959177,2147514962,2147266624,2147452086,2147078427,2147002642,2147722880,2147133622,761,-1,8,15275
1351268879,5807,192.3500061035156200,19.3546009063720700,36.5742988586425800,246.4259948730468800,110.6595993041992200,19.3471202850341800,29.6145896911621100,51,101,63,56,50,13369,2146959844,2147517019,2147263899,2147453632,2147079067,2147012982,2147735067,2147132717,3533,-1,9,60497
1351268934,5805,187.2400054931640600,19.4058990478515620,36.5805015563964840,246.0355987548828000,108.8701019287109400,19.4013690948486330,29.6089591979980470,55,101,61,55,50,13367,2146956224,2147517952,2147265627,2147449673,2147080585,2147013540,2147754560,2147132096,2713,-1,8,34398
1351268989,5804,182.1300048828125000,19.4297008514404300,36.5797996520996100,246.2776031494140600,107.8686981201171900,19.4317207336425780,29.5851707458496100,54,101,60,57,50,13366,2146955940,2147513581,2147266313,2147451602,2147085677,2147028278,2147771108,2147133696,2241,-1,9,26966
1351269064,5808,175.3899993896484400,19.4841003417968750,36.5847015380859400,246.3045043945312500,106.2126007080078100,19.4819393157959000,29.5626296997070300,60,102,61,56,51,13363,2146953892,2147518646,2147266093,2147448731,2147084544,2147042038,2147798299,2147136475,1835,-1,9,17232
1351269119,5805,170.9199981689453000,19.5056991577148440,36.5872993469238300,246.4862976074218800,105.4344024658203100,19.5055294036865230,29.5444393157959000,59,102,61,56,50,13361,2146955794,2147518336,2147269641,2147451181,2147092644,2147053650,2147823570,2147140598,1304,-1,9,25315
1351269174,5806,166.6100006103515600,19.5795001983642580,36.5965995788574200,245.2521972656250000,103.0634002685546900,19.5774402618408200,29.5692100524902340,59,103,62,57,50,13357,2146954203,2147518802,2147270134,2147450651,2147089353,2147067904,2147844333,2147139876,741,-1,9,64380
1351269229,5807,162.5099945068359400,19.6180000305175780,36.5993995666503900,245.1477050781250000,101.6488037109375000,19.6203498840332030,29.5558300018310550,60,105,63,56,51,13356,2146955254,2147517275,2147270043,2147448246,2147097216,2147087661,2147870116,2147143433,3568,-1,8,63061
1351269284,5805,158.6100006103515600,19.6788997650146500,36.6066017150878900,244.5290985107422000,99.7647628784179700,19.6775093078613280,29.5592308044433600,63,108,63,57,50,13353,2146958866,2147515849,2147274212,2147446966,2147094217,2147095405,2147890166,2147142784,2965,-2,9,9261
1351269339,5806,154.9600067138672000,19.7145996093750000,36.6080017089843750,244.5279998779297000,98.6946334838867200,19.7099895477294920,29.5456199645996100,65,108,63,56,50,13348,2146958528,2147514761,2147270381,2147452690,2147104658,2147118208,2147914212,2147144969,2300,-2,8,7201
1351269417,5808,150.5599975585937500,19.7943000793457030,36.6146011352539060,243.7462005615234400,96.0017776489257800,19.7917194366455080,29.5463905334472660,65,107,62,57,50,13351,2146956050,2147519259,2147274496,2147447277,2147111826,2147133997,2147944566,2147145654,1702,-1,9,24807
1351269505,5804,146.6699981689453000,19.9011993408203120,36.6246986389160160,244.3601989746093800,92.6128234863281200,19.8946094512939450,29.4747505187988280,74,109,62,57,50,13349,2146954121,2147518957,2147273846,2147449252,2147114889,2147165174,2147985014,2147151762,1317,-2,9,36467
1351269604,5806,142.5599975585937500,20.0021991729736330,36.6320991516113300,244.2655944824218800,89.3072509765625000,19.9950008392334000,29.4365596771240230,79,109,62,57,50,13345,2146957138,2147522742,2147276187,2147448246,2147116681,2147187584,2148016146,2147152786,544,-1,9,48253
1351269692,5806,138.8999938964843800,20.0527992248535160,36.6282997131347660,245.0908050537109400,87.5920562744140600,20.0471096038818360,29.3771705627441400,81,110,62,57,50,13341,2146957174,2147519424,2147276352,2147448128,2147130843,2147213202,2148054692,2147155392,3527,-1,9,50112
1351269793,5803,134.8800048828125000,20.1714992523193360,36.6399002075195300,245.6118011474609400,83.8053894042968800,20.1621894836425780,29.3051700592041000,87,109,63,57,51,13340,2146959012,2147520685,2147275593,2147447707,2147140836,2147234313,2148083968,2147157229,3454,-1,9,16676
1351269892,5808,131.0200042724609400,20.3089008331298830,36.6549987792968750,245.9998931884765600,79.5568618774414000,20.2913703918457030,29.2334995269775400,92,108,62,57,50,13335,2146956653,2147521014,2147284818,2147449590,2147166500,2147309970,2148201316,2147164525,355,-2,9,43578
1351270002,5802,126.5199966430664000,20.3798999786376950,36.6497001647949200,246.5189056396484400,76.9180984497070300,20.3716392517089840,29.1765193939209000,98,110,64,57,50,13329,2146958162,2147525595,2147284498,2147449088,2147186925,2147364022,2148273188,2147171309,3173,-2,9,45443
1351270092,5805,122.3700027465820300,20.4719009399414060,36.6576004028320300,247.3227996826172000,73.9153518676757800,20.4630107879638670,29.1024894714355470,98,112,63,57,50,13329,2146961408,2147528512,2147288649,2147446400,2147214994,2147450523,2148386843,2147180507,2980,-1,9,15867
1351270169,5805,118.6600036621093800,20.5457000732421880,36.6595993041992200,248.6531066894531200,71.2589797973632800,20.5438709259033200,29.0098590850830080,102,110,63,56,50,13324,2146956406,2147534134,2147294281,2147446592,2147268214,2147554560,2148519899,2147192411,2973,-2,9,21803
1351270257,5807,114.6999969482421900,20.6474990844726560,36.6642990112304700,248.6918029785156200,68.2835693359375000,20.6344795227050780,28.9704704284667970,108,112,62,56,50,13320,2146964050,2147538523,2147298779,2147446025,2147315885,2147673755,2148667364,2147206272,2629,-1,9,63240
1351270359,5804,110.7900009155273400,20.7339000701904300,36.6693992614746100,250.3507995605468800,65.3582229614257800,20.7235908508300780,28.8606605529785160,110,112,61,55,50,13315,2146969728,2147543250,2147311177,2147448246,2147398061,2147843044,2148874313,2147226349,2286,-2,9,37734
1351270480,5806,107.4300003051757800,20.8547000885009770,36.6731986999511700,250.3800964355468800,61.4544105529785160,20.8425693511962900,28.8099002838134770,116,113,61,58,50,13305,2146972882,2147548937,2147318793,2147444992,2147473901,2148004397,2149065225,2147238720,1653,-2,9,18427
1351270645,5803,104.4000015258789000,20.9053993225097660,36.6762008666992200,251.7397003173828000,59.7338104248046900,20.8950290679931640,28.7292308807373050,118,112,63,57,50,13304,2146971693,2147549888,2147323858,2147443465,2147544310,2148133229,2149210852,2147253293,1076,-1,9,23886
1351270808,5807,100.3600006103515600,21.1653003692626950,36.6705017089843750,253.9123992919922000,51.4484214782714840,21.1478290557861330,28.5312309265136720,111,117,61,57,50,13305,2146978102,2147561545,2147338614,2147447286,2147696018,2148381705,2149487204,2147286016,684,-2,9,42495
1351270864,5804,99.0500030517578100,21.2471008300781250,36.6708984375000000,255.0610046386718800,48.7561492919921900,21.2300395965576170,28.4485301971435550,119,114,63,57,50,13296,2146981622,2147565074,2147342125,2147447881,2147757046,2148474075,2149585197,2147295789,654,-2,9,34460
1351270941,5804,97.1500015258789000,21.2942008972167970,36.6730003356933600,255.7745056152343800,46.9694709777832000,21.2846107482910160,28.3959503173828120,116,116,62,57,50,13293,2146982884,2147570697,2147351460,2147446272,2147854016,2148633216,2149756288,2147310281,255,-2,9,8296
1351271031,5804,94.1699981689453100,21.4507007598876950,36.6706008911132800,255.7478942871093800,41.5424499511718750,21.4504699707031250,28.3292808532714840,118,115,62,56,50,13283,2146992448,2147585600,2147366427,2147446400,2148038016,2148914907,2150062902,2147341705,623,-1,9,26554
1351271086,5807,91.6699981689453100,21.6114997863769530,36.6757011413574200,257.3337097167969000,36.3149681091308600,21.6103591918945300,28.1973304748535160,113,116,63,57,50,13281,2147003035,2147594989,2147378770,2147450432,2148224429,2149205714,2150353965,2147374153,693,-2,9,40989
1351271141,5806,89.4700012207031200,21.8663005828857420,36.6902999877929700,260.4142150878906000,28.8652400970459000,21.8384609222412100,27.9768600463867200,117,116,63,57,50,13281,2147010276,2147601709,2147390610,2147450377,2148416210,2149491190,2150648073,2147407661,1168,-2,9,11702
1351271196,5805,87.7699966430664000,21.8994998931884770,36.6917991638183600,262.6264953613281000,27.3510799407959000,21.8848495483398440,27.8674297332763670,113,115,63,57,50,13282,2147018834,2147615122,2147405138,2147452361,2148601197,2149763986,2150917906,2147432740,1226,-1,9,6304
1351271251,5804,86.1100006103515600,21.9302997589111330,36.6590003967285160,263.4851074218750000,26.0722599029541000,21.9240398406982420,27.8164291381835940,110,120,62,56,50,13282,2147026057,2147623158,2147416384,2147448045,2148795318,2150025142,2151171126,2147465289,1060,-1,9,52898
1351271341,5807,82.8899993896484400,22.1805000305175780,36.6671981811523440,264.0892028808594000,18.4860191345214840,22.1567096710205080,27.6985092163085940,105,120,65,58,50,13269,2147040731,2147643547,2147444114,2147453129,2149216420,2150603200,2151694720,2147525174,425,-2,9,61235
1351271396,5806,80.5199966430664000,22.3297004699707030,36.6795997619628900,263.2604980468750000,13.2023897171020500,22.3189296722412100,27.6671009063720700,110,118,63,57,50,13275,2147056228,2147665673,2147465929,2147451008,2149574528,2151082779,2152145362,2147571593,3420,-1,9,32964
1351271451,5807,78.4400024414062500,22.5729007720947270,36.6966018676757800,263.3869934082031000,6.0380549430847170,22.5391502380371100,27.5741291046142580,106,121,62,59,50,13269,2147070080,2147682093,2147480320,2147452699,2149908150,2151518765,2152531364,2147615826,3128,-2,9,11484
1351271506,5802,76.7699966430664000,22.6529998779296880,36.6856002807617200,265.6337890625000000,3.0197649002075195,22.6320095062255860,27.4467506408691400,98,122,62,57,50,13264,2147087378,2147697280,2147497499,2147450761,2150203693,2151881051,2152841462,2147646829,3109,-2,9,10426
1351271572,5805,75.2500000000000000,22.8423995971679700,36.6679000854492200,267.1297912597656000,-2.8219881057739260,22.8118801116943360,27.3158092498779300,95,123,64,57,50,13273,2147099053,2147712512,2147511012,2147450386,2150460553,2152205257,2153119232,2147679149,3418,-1,9,55358
1351271672,5810,73.0699996948242200,23.0874004364013670,36.6772994995117200,268.3143920898437500,-11.0495595932006840,23.0655498504638670,27.1689090728759770,94,123,63,57,49,13263,2147121508,2147739538,2147535698,2147451812,2151005092,2152886729,2153681782,2147743634,18,-1,9,12122
1351271738,5806,71.1100006103515600,23.1993007659912100,36.6777992248535160,270.3193969726562500,-15.0837802886962890,23.1900806427001950,27.0414009094238280,91,125,63,57,50,13262,2147150089,2147770486,2147563638,2147455606,2151618432,2153651593,2154329280,2147808740,3250,-2,9,40353
1351271815,5806,69.2799987792968800,23.2719001770019530,36.6245002746582000,271.3873901367187500,-17.3973102569580080,23.2615394592285160,26.9717597961425780,91,124,65,57,50,13264,2147181412,2147804324,2147598262,2147456658,2152295826,2154493019,2155021522,2147884132,3067,-2,9,4464
1351271971,5808,67.0899963378906200,23.5690994262695300,36.6129989624023440,267.9241943359375000,-27.2105407714843750,23.5650196075439450,26.9883995056152340,89,124,62,57,50,13257,2147238198,2147872374,2147663058,2147459044,2153718445,2156229385,2156423990,2148039853,2719,-1,9,4884
1351272037,5804,65.2799987792968800,23.8913002014160160,36.5708999633789060,265.7305908203125000,-36.2682609558105500,23.8456802368164060,26.9654808044433600,93,125,63,56,49,13246,2147278994,2147915977,2147706861,2147460123,2154609069,2157297261,2157278866,2148138596,2867,-2,9,1572
1351272325,5808,63.0099983215332000,24.2513008117675780,36.5815010070800800,256.3294982910156000,-48.3871498107910160,24.2220497131347660,27.1982803344726560,90,134,63,58,50,13229,2147332964,2147964672,2147752054,2147464914,2155936402,2158675556,2158231625,2148256685,26,-1,9,3740
1351272391,5807,61.3199996948242200,24.5349006652832030,36.5349006652832000,253.7500000000000000,-53.4196014404296900,24.3786296844482420,27.2439098358154300,94,133,63,59,50,13224,2147368877,2148000347,2147783396,2147462765,2156605339,2159383012,2158761691,2148335734,268,-1,9,46920
1351272635,5805,59.2400016784668000,25.1653995513916000,36.4170989990234400,250.4830017089843800,-76.2128372192382800,25.0901393890380860,27.1037693023681640,93,135,65,57,50,13213,2147408978,2148037961,2147813650,2147465782,2157405376,2160163986,2159249728,2148401234,936,-1,9,17365
1351272945,5805,57.8300018310546900,25.6168994903564450,36.2979011535644500,243.6154937744140600,-92.0615768432617200,25.5871791839599600,27.2038002014160160,90,130,62,57,50,13225,2147453632,2148083008,2147845513,2147466441,2158307821,2161192521,2160104100,2148511323,1441,-2,9,19584
1351273409,5807,55.7500000000000000,25.6411991119384770,36.2924995422363300,241.3128967285156200,-93.7149963378906200,25.6391506195068360,27.2837295532226560,83,120,63,58,50,13225,2147504548,2148123803,2147881590,2147463286,2159194761,2162071040,2160743378,2148605348,1056,-1,9,63954
1351273596,5806,52.3300018310546900,25.6599006652832030,36.2672004699707000,240.9770965576172000,-94.3898468017578100,25.6603698730468750,27.2899894714355470,75,121,63,57,50,13233,2147687204,2148289910,2148003620,2147474989,2163193581,2166085622,2163475126,2148955053,368,-1,9,24395
1351273630,5805,51.3699989318847660,25.6592006683349600,36.2653007507324200,240.9118041992187500,-94.3877868652343800,25.6603107452392580,27.2930297851562500,73,120,62,58,50,13234,2147773824,2148373421,2148075044,2147482587,2165158866,2168244278,2165075556,2149151945,124,-1,9,47433
1351273687,5803,49.7799987792968750,25.6620006561279300,36.2579994201660160,240.8516998291015600,-94.4695205688476600,25.6628799438476560,27.2946205139160160,71,118,63,57,50,13233,2147880603,2148476470,2148150070,2147490313,2167608795,2170710390,2166738541,2149357668,3364,-1,9,41530
1351273768,5809,47.8499984741210940,25.6616992950439450,36.2523002624511700,240.7615051269531200,-94.4845733642578100,25.6633491516113280,27.2984790802001950,71,119,62,57,48,13235,2148006025,2148587236,2148226441,2147499840,2170452352,2173454747,2168487707,2149583241,2793,-1,9,37096
1351273848,5807,45.5000000000000000,25.6620998382568360,36.2462005615234400,240.8376007080078000,-94.4736480712890600,25.6630096435546880,27.2952804565429700,68,119,61,57,48,13235,2148138532,2148698861,2148307931,2147510363,2173932068,2176712411,2170424356,2149873609,2575,-1,9,15713
1351273893,5806,43.5400009155273440,25.6618995666503900,36.2475013732910160,240.9311065673828000,-94.4831771850586000,25.6633090972900400,27.2909507751464840,68,119,63,57,49,13232,2148212516,2148761810,2148352594,2147520502,2175806308,2178421714,2171421129,2150025051,2640,-1,9,55393
1351273938,5808,41.3899993896484400,25.6618003845214840,36.2486991882324200,240.8256988525390600,-94.4619369506836000,25.6626396179199220,27.2958297729492200,69,118,62,56,50,13232,2148369398,2148901366,2148466230,2147537572,2179830326,2182370934,2174076105,2150440841,2742,-1,9,3277
1351273971,5805,39.8300018310546900,25.6606998443603500,36.2505989074707000,240.8688964843750000,-94.4549636840820300,25.6624202728271500,27.2940196990966800,68,118,63,57,50,13230,2148503634,2149024283,2148565970,2147550491,2183200841,2185821001,2176500736,2150817673,2889,-2,8,11079
1351274016,5806,37.4599990844726560,25.6606006622314450,36.2452011108398440,240.9161987304687500,-94.4558486938476600,25.6624507904052730,27.2919006347656250,68,120,65,57,49,13231,2148664054,2149167323,2148679104,2147574244,2187490294,2189944704,2179318902,2151362313,3069,-1,9,47467
1351274049,5807,35.4700012207031250,25.6595993041992200,36.2453994750976560,241.0045013427734400,-94.4300765991211000,25.6616401672363280,27.2883205413818360,67,118,64,57,50,13226,2148808274,2149296996,2148780160,2147593810,2191350217,2193755437,2181924032,2151834642,2982,-1,9,52174